Torna al catalogo

STARLINK-37701

AttivoComunicazioniSSO
NORAD 69306·PAYLOAD·🇺🇸 United States

Lanciato May 30, 2026 da Vandenberg Space Force Base

Loading…

Prossimi Passaggi (prossime 24 ore)

TLE

AggiornatoSource: CelesTrak SupGP

Epoca: Sep 15, 2026, 03:24 UTC

1 69306C 26119L   26258.14215278 -.00062085  00000+0 -19275-2 0  2582
2 69306  97.2833 282.9503 0001027  94.1746 209.3025 15.33467173    10

Traccia STARLINK-37701 in tempo reale con AllMySat

Download on the App Store